Flag for Pakistan Weather past 2 weeks in Islamabad, Pakistan

Now
93 °F

Passing clouds.


Feels Like: 105 °F
Forecast: 78 / 96 °F
Wind: 12 mph from Southeast

Location: Islamabad Airport

Current Time: Jul 30, 2014 at 5:09:45 PM

Latest Report: Jul 30, 2014 at 4:00 PM


Visibility: 4 mi

Pressure: 29.62 "Hg

Humidity: 56%

Dew point: 75 °F

Location of IslamabadLocation

Historic Weather in Islamabad — Graph

°F

Islamabad temperature yesterday

Maximum temperature yesterday: 84 °F (at 2:00 PM)
Minimum temperature yesterday: 81 °F (at 6:00 AM)
Average temperature yesterday: 82 °F

Past Weeks' High & Low Weather Summary

 TemperatureHumidityPressure
High100 °F (Jul 22, 3:00 PM)100% (Jul 19, 7:00 AM)29.80 "Hg (Jul 19, 7:00 AM)
Low68 °F (Jul 19, 6:00 AM)42% (Jul 20, 4:00 PM)29.42 "Hg (Jul 15, 5:00 PM)
Average85 °F75%29.58 "Hg
* Reported Jul 15 5:00 PM — Jul 30 4:00 PM, Islamabad, Weather by CustomWeather, © 2014

Note: Actual official high and low records may vary slightly from our data, if they occured in-between our weather recording intervals... More about our weather records

Advertising

Islamabad weather history for previous 24 hours

 ConditionsComfort  
Time TempWeatherWind HumidityBarometerVisibility
4:00 PM
Jul 30
93 °FPassing clouds.12 mph56%29.62 "Hg4 mi
3:00 PM93 °FPassing clouds.12 mph56%29.62 "Hg4 mi
2:00 PM91 °FHaze.12 mph63%29.65 "Hg3 mi
1:00 PM91 °FScattered clouds.12 mph63%29.68 "Hg2 mi
12:00 PM91 °FScattered clouds.12 mph63%29.71 "Hg2 mi
11:00 AM90 °FScattered clouds.7 mph67%29.71 "Hg2 mi
10:00 AM88 °FScattered clouds.7 mph75%29.71 "Hg2 mi
9:00 AM86 °FScattered clouds.No wind75%29.71 "Hg2 mi
8:00 AM82 °FFog.No wind84%29.71 "Hg2 mi
7:00 AM81 °FFog.No wind89%29.68 "Hg2 mi
6:00 AM79 °FFog.No wind94%29.68 "Hg2 mi
5:00 AM77 °FFog.5 mph94%29.65 "Hg2 mi
4:00 AM77 °FFog.5 mph94%29.65 "Hg2 mi
3:00 AM79 °FFog.5 mph94%29.68 "Hg2 mi
2:00 AM79 °FFog.7 mph94%29.68 "Hg2 mi
1:00 AM79 °FFog.5 mph94%29.68 "Hg2 mi
12:00 AM81 °FFog.7 mph89%29.68 "Hg3 mi
11:00 PM
Jul 29
81 °FFog.7 mph89%29.68 "Hg3 mi
10:00 PM82 °FPassing clouds.7 mph79%29.65 "Hg3 mi
9:00 PM82 °FPassing clouds.7 mph79%29.65 "Hg3 mi
7:00 PM84 °FScattered clouds.7 mph74%29.62 "Hg3 mi
5:00 PM84 °FScattered clouds.12 mph79%29.62 "Hg3 mi
Weather by CustomWeather, © 2014

See weather overviewHow to use our weather pages